Terminal Aerodrome Forecast
Issued by NWS

Home | Current Version | Previous Version | Text Only | Print | Product List | Glossary On
Versions: 1 2 3 4 5 6 7 8 9 10 11 12 13
000
FTUS42 TJSJ 012330
TAFISX
TAF
TISX 012330Z 0200/0224 10011KT P6SM FEW030 SCT050
     FM021300 10015KT P6SM VCSH FEW030 SCT080
     FM022300 07009KT P6SM FEW025
      AMD NOT SKED=

USA.gov is the U.S. government's official web portal to all federal, state and local government web resources and services.